Regional Weather Roundup
Issued by NWS

Home | Current Version | Previous Version | Graphics & Text | Print | Product List | Glossary On
Versions: 1 2 3 4 5 6 7 8 9 10 11 12 13 14 15 16 17 18 19 20 21 22 23 24 25 26 27 28 29 30 31 32 33 34 35 36 37 38 39 40 41 42 43 44 45 46 47 48 49 50
000
ASUS43 KLSX 291107
RWRMO

WEATHER SUMMARY FOR MISSOURI
NATIONAL WEATHER SERVICE SPRINGFIELD MO
600 AM CDT SUN MAR 29 2015

NOTE: "FAIR" INDICATES FEW OR NO CLOUDS BELOW 12,000 FEET WITH NO
       SIGNIFICANT WEATHER AND/OR OBSTRUCTIONS TO VISIBILITY.
       CURRENT SKY AND/OR WEATHER CONDITIONS ARE NOT AVAILABLE FOR
       CHILLICOTHE AND FARMINGTON.

MOZ001>031-035>038-043-044-053-054-291200-
...NORTHERN AND WESTERN MISSOURI...

CITY           SKY/WX    TMP DP  RH WIND       PRES   REMARKS
KANSAS CTY INT CLOUDY    40  34  79 S10       29.95R
KANSAS C DTWN  PTCLDY    41  33  73 VRB7      29.96F
LEE`S SUMMIT   CLEAR     37  32  82 S13G23    29.93F WCI  29
ST JOSEPH      CLOUDY    42  35  76 S8        29.95R
CHILLICOTHE      N/A     39  32  76 SE7       30.01S
KIRKSVILLE     MOCLDY    36  30  79 S21       29.98F WCI  25

$$
MOZ066>068-077>081-088>096-101>105-291200-
...SOUTHWEST MISSOURI...

CITY           SKY/WX    TMP DP  RH WIND       PRES   REMARKS
SPRINGFIELD    CLEAR     35  28  75 SE24G33   30.01F WCI  23
JOPLIN         CLEAR     42  34  73 SE10      29.99R

$$
MOZ032>034-039>042-045>050-055>058-069>072-291200-
...CENTRAL MISSOURI...

CITY           SKY/WX    TMP DP  RH WIND       PRES   REMARKS
COLUMBIA       CLEAR     35  27  72 SE16      30.04F WCI  25
JEFFERSON CITY CLEAR     35  25  66 SE10      30.09R WCI  27
ROLLA          CLEAR     35  23  61 S22G29    30.08F WCI  23
SEDALIA        CLEAR     38  30  73 S13       30.02R WCI  30
WHITEMAN AFB   PTCLDY    37  31  78 S14       29.99S WCI  28
WARRENSBURG    CLEAR     36  32  87 S5        30.01R
OSAGE BEACH    CLEAR     37  27  65 S14G22    30.06F WCI  29

$$
MOZ051-052-059>065-291200-
...EAST CENTRAL MISSOURI...

CITY           SKY/WX    TMP DP  RH WIND       PRES   REMARKS
ST LOUIS INTL  CLEAR     35  21  56 SE14G21   30.17F WCI  26
SPIRIT OF STL  CLEAR     32  24  72 CALM      30.15F
ST CHARLES     CLEAR     32  24  72 SE7       30.16F WCI  26

$$
MOZ072>076-082>087-097>100-106>115-291200-
...SOUTH CENTRAL AND SOUTHEAST MISSOURI...

CITY           SKY/WX    TMP DP  RH WIND       PRES   REMARKS
CAPE GIRARDEAU CLEAR     32  23  69 SE8       30.24S WCI  25
FARMINGTON     CLEAR     30  25  80 SE7       30.21S WCI  23
POPLAR BLUFF   CLEAR     31  28  89 CALM      30.24R
WEST PLAINS    CLEAR     31  27  85 S7        30.16F WCI  24

$$


USA.gov is the U.S. government's official web portal to all federal, state and local government web resources and services.